Regional Weather Roundup
Issued by NWS Green Bay, WI

Home | Current Version | Previous Version | Text Only | Print | Product List | Glossary On
Versions: 1 2 3 4 5 6 7 8 9 10 11 12 13 14 15 16 17 18 19 20 21 22 23 24 25 26 27 28 29 30 31 32 33 34 35 36 37 38 39 40 41 42 43 44 45 46 47 48 49 50
000
ASUS43 KGRB 252311
RWRGRB

NORTH-CENTRAL AND NORTHEAST WISCONSIN REGIONAL WEATHER ROUNDUP
NATIONAL WEATHER SERVICE GREEN BAY WI
600 PM CDT TUE JUL 25 2017

WIZ005-009-010>012-018-019-260000-
NORTH CENTRAL WISCONSIN

CITY           SKY/WX    TMP DP  RH WIND       PRES   REMARKS
IRONWOOD       CLOUDY    72  60  66 S8        29.99F
MANITOWISH WTR CLOUDY    69  60  72 S13G22    30.05S
ARBOR VITAE    PTSUNNY   72  62  71 S7        30.05F
EAGLE RIVER    PTSUNNY   72  56  58 S7        30.06S
LAND O LAKES   CLOUDY    71  55  58 S8G16     30.07S
RHINELANDER    CLOUDY    69  58  67 S10       30.07F
PHILLIPS       CLOUDY    68  65  89 SE6       30.02F
ANTIGO         LGT RAIN  66  61  82 S5        30.10F
TOMAHAWK         N/A     66  60  80 CALM      30.06F
MERRILL        CLOUDY    67  65  93 E5        30.07F
$$

WIZ013-073-260000-
NORTHEAST WISCONSIN

CITY           SKY/WX    TMP DP  RH WIND       PRES   REMARKS
IRON MOUNTAIN  CLOUDY    73  57  57 S14       30.06F
MARINETTE      MOSUNNY   74  63  68 S12       30.10S
OCONTO         CLOUDY    74  64  69 S8G17     30.09R
$$

WIZ017-030-035>037-045-260000-
CENTRAL WISCONSIN

CITY           SKY/WX    TMP DP  RH WIND       PRES   REMARKS
MEDFORD        MOSUNNY   71  61  70 S12       30.03F
WAUSAU         CLOUDY    71  62  73 SE9       30.06S THUNDER
MOSINEE        PTSUNNY   73  64  73 SE8       30.07F
MARSHFIELD     CLOUDY    75  60  59 S14G21    30.04F
WISC RAPIDS    MOSUNNY   79  62  56 S13G20    30.06F
STEVENS POINT  PTSUNNY   75  60  59 S14       30.07S
WAUPACA        PTSUNNY   80  62  54 S13G21    30.07F
SHAWANO        PTSUNNY   75  61  63 S3        30.08F
CLINTONVILLE   CLOUDY   N/A N/A N/A S8        30.07F
WAUTOMA        CLOUDY    77  63  61 S13G20    30.07F
$$

WIZ038-039-048-051-260000-
FOX VALLEY

CITY           SKY/WX    TMP DP  RH WIND       PRES   REMARKS
NWS GREEN BAY  PTSUNNY   74  64  71 S13       30.10R
APPLETON       PTSUNNY   75  55  50 S14       30.08F
OSHKOSH        CLOUDY    75  62  64 S9        30.09F
FOND DU LAC    CLOUDY    77  59  53 S14       30.10F
$$

WIZ022-050-052-260000-
EAST CENTRAL WISCONSIN

CITY           SKY/WX    TMP DP  RH WIND       PRES   REMARKS
EPHRAIM        FAIR      71  58  64 S12G21    30.09F
WASHINGTON ISL FAIR      69  63  81 S13G18    30.10F
STURGEON BAY     N/A     71  59  65 S16G24    30.11S
MANITOWOC      CLOUDY    71  60  68 S17G24    30.12F
SHEBOYGAN      CLOUDY    72  61  68 S17       30.13S
$$

LMZ563-521-522-541>543-260000-
LAKESHORE

STATION/POSITION TIME  TEMP    WIND        PRES    VSBY  WAVE
                       AIR SEA DIR/SP/G                  HT/PER
                 (UTC) (F)     (DEG/KT/KT) (MB)    (MI)  (FT/S)
SHEBOYGAN LKSHOR 2300   69     170/ 16/ 18 1019.8F
KEWAUNEE LKSHORE 2242   69     170/ 18/ 21 1019.0F
NORTHPORT PIER   2240   70     160/  7/ 20 1019.3F
N MID LAKE BUOY  2250   68 67  180/ 14/ 17 1020.1F         2/ 4
S GREEN BAY BUOY 2300   73 73  160/ 16/ 21 1018.4
SISTER BAY LKSHO 2302   72     180/ 15/ 19   N/A
CHAMBERS ISLAND  2240   73     160/  7/ 15 1018.3F
MENOMINEE LKSHOR 2242   72     150/ 15/ 18 1018.3F
$$




USA.gov is the U.S. government's official web portal to all federal, state and local government web resources and services.